map of AHU home
AHU - Airport
Location
City:  Al Hoceima, Morocco
Name:Cherif al Idrissi Airport
ICAO:GMTA
IATA:AHU

Details
Type:Airport (Aerodrome, Airfield)
Use:Public/Civil, International (customs port of entry)
Latitude:3510'38"N (35.177103)
Longitude:350'22"W (-3.839524)
Datum:WGS 1984
Elevation:95 ft (29 m)
Variation:0.64W (WMM2015 magnetic declination)
0.11 annual change
Runways:1
Longest:8202 × 148 ft (2500 × 45 m), paved

Time
Time Zone:UTC+0 (DST+1)
Local Time:

Weather
METAR:GMTA 220700Z 02002KT 6000 SCT013 SCT026 23/21 Q1016 NOSIG
TAF:GMTA 220500Z 2206/2312 VRB02KT 8000 SCT013
BECMG 2206/2208 02012KT

Related Locations
Nearby:
Farthest:NZOX: 12354 mi / 19882 km
Okiwi Station, AUK, NZ

Find:

   beyond  
but within

Other Information
Maps:
NOTAMs:
Links:
Sources:

  
  • flag of Morocco
  

Sectional Chart

Flight Planning
at skyvector.com

Satellite Image

Google Maps Satellite view

 

Copyright © 2004-2018 Karl L. Swartz. All rights reserved.
The Great Circle Mapper name and logo are trademarks of the Great Circle Mapper.
All other trademarks mentioned herein belong to their respective owners.
Please see credits for attibutions and further copyright information.

  Follow gcmap on Facebook Follow gcmap on Twitter Follow gcmap on Google+ GCmap on LinkedIn

hCard Microformat

Geo Microformat